TimePDT,TemperatureF,Dew PointF,Humidity,Sea Level PressureIn,VisibilityMPH,Wind Direction,Wind SpeedMPH,Gust SpeedMPH,PrecipitationIn,Events,Conditions,WindDirDegrees,DateUTC
12:53 AM,80.1,26.1,14,30.00,10.0,NW,4.6,-,N/A,,Clear,310,2012-10-01 07:53:00
1:53 AM,77.0,28.0,17,30.01,10.0,NW,5.8,-,N/A,,Clear,310,2012-10-01 08:53:00
2:53 AM,75.0,30.0,19,30.01,10.0,Calm,Calm,-,N/A,,Clear,0,2012-10-01 09:53:00
3:53 AM,73.0,32.0,22,30.01,10.0,Calm,Calm,-,N/A,,Clear,0,2012-10-01 10:53:00
4:53 AM,71.1,33.1,25,30.03,10.0,Calm,Calm,-,N/A,,Clear,0,2012-10-01 11:53:00
5:53 AM,70.0,30.9,24,30.05,10.0,Calm,Calm,-,N/A,,Clear,0,2012-10-01 12:53:00
6:53 AM,73.9,28.9,19,30.06,10.0,North,4.6,-,N/A,,Clear,350,2012-10-01 13:53:00
7:53 AM,77.0,28.9,17,30.08,10.0,Calm,Calm,-,N/A,,Clear,0,2012-10-01 14:53:00
8:53 AM,81.0,32.0,17,30.09,10.0,West,3.5,-,N/A,,Clear,280,2012-10-01 15:53:00
9:53 AM,86.0,28.0,12,30.08,10.0,NW,8.1,-,N/A,,Clear,320,2012-10-01 16:53:00
10:53 AM,91.0,26.1,10,30.06,10.0,Calm,Calm,-,N/A,,Clear,0,2012-10-01 17:53:00
11:53 AM,91.9,27.0,10,30.04,10.0,Variable,3.5,-,N/A,,Clear,0,2012-10-01 18:53:00
12:53 PM,91.9,27.0,10,30.02,10.0,Calm,Calm,-,N/A,,Clear,0,2012-10-01 19:53:00
1:53 PM,93.9,26.1,9,29.99,10.0,Calm,Calm,-,N/A,,Clear,0,2012-10-01 20:53:00
2:53 PM,97.0,26.1,8,29.96,10.0,NNE,3.5,-,N/A,,Clear,20,2012-10-01 21:53:00
3:53 PM,96.1,26.1,8,29.94,10.0,SE,8.1,-,N/A,,Clear,140,2012-10-01 22:53:00
4:53 PM,95.0,25.0,8,29.93,10.0,ESE,6.9,-,N/A,,Clear,120,2012-10-01 23:53:00
5:53 PM,93.9,25.0,8,29.93,10.0,Variable,3.5,-,N/A,,Clear,0,2012-10-02 00:53:00
6:53 PM,91.0,26.1,10,29.92,10.0,Calm,Calm,-,N/A,,Clear,0,2012-10-02 01:53:00
7:53 PM,84.2,32.0,15,29.95,10.0,WNW,4.6,-,N/A,,Clear,290,2012-10-02 02:53:00
8:53 PM,82.9,35.1,18,29.94,10.0,WNW,5.8,-,N/A,,Clear,290,2012-10-02 03:53:00
9:53 PM,79.0,33.1,19,29.94,10.0,NNW,4.6,-,N/A,,Clear,330,2012-10-02 04:53:00
10:53 PM,78.1,28.9,17,29.92,10.0,NNW,9.2,-,N/A,,Clear,330,2012-10-02 05:53:00
11:53 PM,75.9,30.0,19,29.92,10.0,WNW,5.8,-,N/A,,Clear,300,2012-10-02 06:53:00